Location: Madrid
(40.4167°N, 3.7036°W)
Time: 11:54:26
(UTC+00:00)

ISS - Pass Details

Date: 03 May 2025
Orbit: 416 x 419 km, 51.6° (Epoch: 14 May)

Event Time Altitude Azimuth Distance (km) Brightness Sun altitude
Rises 04:57:10 0° 311° (NW) 2,361 -0.2 -3.3°
Reaches altitude 10° 04:59:25 10° 323° (NW) 1,496 -1.1 -2.9°
Maximum altitude 05:02:27 30° 27° (NNE) 773 -1.7 -2.4°
Drops below altitude 10° 05:05:27 10° 91° (E) 1,492 0.4 -1.9°
Sets 05:07:42 0° 102° (ESE) 2,354 1.1 -1.5°
